默认 日期 大小 文件数 浏览量 最新下载 xml
01.04磁力链接相关资源由用户搜索指令自动获取,结果来源于网络,本站不存储任何资料,亦不承担任何责任,请于24小时内删除,搜索到25756个磁力,显示前4000条数据,用时48ms。
    {"VIDEO_TS": {"VIDEO_TS.BUP": 28672, "VIDEO_TS.IFO": 28672, "VTS_01_0.BUP": 26624, "VTS_01_0.IFO": 26624, "VTS_01_0.VOB": 50178048, "VTS_01_1.VOB": 4653056, "VTS_02_0.BUP": 14336, "VTS_02_0.IFO": 14336, "VTS_02_1.VOB": 3921920, "VTS_03_0.BUP": 14336, " ...
创建时间: 2018-12-03 08:02:25 大小:7.88 GB 文件数量:49 热度:10 最近下载:2025-06-02 20:14:01
    {"RARBG.txt": 30, "baebz.17.01.04.leah.gotti.and.nina.north.brunette.threesome.mp4": 1384889489, "baebz.17.01.04.leah.gotti.and.nina.north.brunette.threesome.nfo": 5204}
创建时间: 2018-12-03 10:41:00 大小:1.29 GB 文件数量:3 热度:97 最近下载:2025-08-18 13:49:02
    ... ] Shusaku The Letch - Replay Vol.01 (DVD 640x480 h264 AAC) [79BE8164 ... ] Shusaku The Letch - Replay Vol.04 (DVD 640x480 h264 AAC) [B20ECCE5 ...
创建时间: 2018-12-03 11:42:11 大小:850.99 MB 文件数量:4 热度:56 最近下载:2025-08-13 01:51:01
    ... 舞曲[ロンド]~) - 01.avi": 224471040, "Shintaisou (Kari) The ... 舞曲[ロンド]~) - 04.avi": 221304832, "Shintaisou (Kari) The ...
创建时间: 2018-12-03 11:49:35 大小:1.62 GB 文件数量:6 热度:192 最近下载:2025-10-11 22:54:03
    {"Where In The World Is Carmen Sandiego 001 (1996).cbr": 13582710, "Where In The World Is Carmen Sandiego 002 (1996).cbr": 13240543, "Where In The World Is Carmen Sandiego 003 (1996).cbr": 13560280, "Where In The World Is Carmen Sandiego 004 (1997).cbr": ...
创建时间: 2018-12-03 12:18:18 大小:51.4 MB 文件数量:4 热度:13 最近下载:2025-09-18 23:27:08
    {"pba.18.01.04.lili.parker[N1C].mp4": 1478247428}
创建时间: 2018-12-03 14:10:57 大小:1.38 GB 文件数量:1 热度:24 最近下载:2025-08-20 14:25:02
    {"LoGo.png": 207679, "Zapraszamy-KLIK.url": 111, "KMS.Tools.01.04.2018.rar": 40469637, "! Want YOU more -CLIK.url": 111, "! Chcesz mieć TO szybciej - zapraszamy-KLIK.url": 111}
创建时间: 2018-12-03 14:43:05 大小:38.79 MB 文件数量:5 热度:13 最近下载:2025-03-11 19:21:05
    {"RARBG.com.txt": 34, "taa314aahddo.wmv": 1369189846}
创建时间: 2018-12-03 15:57:34 大小:1.28 GB 文件数量:2 热度:18 最近下载:2024-01-20 11:27:02
    {"RARBG.com.txt": 34, "i.cc130104n7730.wmv": 652730653}
创建时间: 2018-12-03 16:58:19 大小:622.49 MB 文件数量:2 热度:12 最近下载:2025-02-04 09:40:03
    {"RARBG.txt": 30, "fuckingmachines.17.01.04.cadence.lux.mp4": 1553493498, "fuckingmachines.17.01.04.cadence.lux.nfo": 5195}
创建时间: 2018-12-03 17:31:09 大小:1.45 GB 文件数量:3 热度:38 最近下载:2025-09-15 17:36:03
    {"My Little Sister Can Read Kanji - LN 01.epub": 12609148, "My Little Sister Can Read Kanji - LN 02.epub": 12487422, "My Little Sister Can Read Kanji - LN 03.epub": 10158051, "My Little Sister Can Read Kanji - LN 04.epub": 14533293}
创建时间: 2018-12-03 17:36:14 大小:47.48 MB 文件数量:4 热度:14 最近下载:2025-08-01 10:16:10
    {"1.jpg": 151099, "2.jpg": 297678, "EICCB-091.mp4": 1025740408}
创建时间: 2018-12-03 21:01:39 大小:978.65 MB 文件数量:3 热度:30 最近下载:2025-08-04 20:23:06
    {"RARBG.com.txt": 34, "tbp.lj.140104.kaedo.officegirl.nfo": 1046, "tbp.lj.140104.kaedo.officegirl.wmv": 592196187}
创建时间: 2018-12-03 21:05:47 大小:564.76 MB 文件数量:3 热度:61 最近下载:2025-07-08 13:08:01
    ... .and.Her.Cat-Everything.Flows.01.2006.BDRip.1080p.mkv": 537852735 ... .and.Her.Cat-Everything.Flows.04.2006.BDRip.1080p.mkv": 537658183 ...
创建时间: 2018-12-03 22:04:24 大小:2 GB 文件数量:4 热度:16 最近下载:2025-09-17 14:51:06
    {"VIDEO_TS": {"VIDEO_TS.BUP": 28672, "VIDEO_TS.IFO": 28672, "VTS_01_0.BUP": 26624, "VTS_01_0.IFO": 26624, "VTS_01_0.VOB": 50178048, "VTS_01_1.VOB": 4653056, "VTS_02_0.BUP": 14336, "VTS_02_0.IFO": 14336, "VTS_02_1.VOB": 3921920, "VTS_03_0.BUP": 14336, " ...
创建时间: 2018-12-03 22:22:18 大小:7.88 GB 文件数量:49 热度:12 最近下载:2025-05-17 17:50:02
    {"RARBG.txt": 30, "fugli.nfo": 12164, "file_id.diz": 669, "_sexart-taesa-cover.jpg": 104162, "RARBG.COM_XXX_BANNER.jpg": 517081, "sexart-taesa-cover-clean.jpg": 93198, "sexart_taesa_mia-sollis_high_0001.jpg": 2607319, "sexart_taesa_mia-sollis_high_0002.jpg ...
创建时间: 2018-12-03 22:30:53 大小:209.68 MB 文件数量:108 热度:10 最近下载:2023-04-21 08:20:05
    {"Hulk and Power Pack 01 (2007) (webrip) (Worldbreaker-DCP).cbr": ... ": 9419112, "Hulk and Power Pack 04 (2007) (webrip) (Worldbreaker-DCP).cbr ...
创建时间: 2018-12-03 23:05:44 大小:39.35 MB 文件数量:4 热度:12 最近下载:2025-09-17 10:34:11
    ... -RAW]Majuu Senshi Luna Varga 01 - Rimsbell.ass": 31121, "[LD-RAW ... ]Majuu Senshi Luna Varga 01 - Rimsbell.avi": 465309696, "[LD-RAW ... ]Majuu Senshi Luna Varga 04 - Dark Varga.ass": 28950, "[LD ... -RAW]Majuu Senshi Luna Varga 04 - Dark Varga.avi": 372219904 ...
创建时间: 2018-12-03 23:32:59 大小:1.49 GB 文件数量:11 热度:13 最近下载:2025-04-30 05:58:01
    {"RARBG.com.txt": 34, "oro-ptl.16.01.04.tcndf.mp4": 820221314, "oro-ptl.16.01.04.tcndf.nfo": 7485}
创建时间: 2018-12-03 23:37:47 大小:782.23 MB 文件数量:3 热度:22 最近下载:2025-10-10 01:22:02
    {"Sample": {"Screenshot 01.png": 1361189, "Screenshot 02 ... Screenshot 03.png": 1012338, "Screenshot 04.png": 709054, "Screenshot 05.png ... no Taizai - Seisen no Shirushi - 01 [720p] [x265] [pseudo].mkv ... no Taizai - Seisen no Shirushi - 04 [720p] [x265] [pseudo].mkv ...
创建时间: 2018-12-04 00:07:04 大小:551.42 MB 文件数量:15 热度:18 最近下载:2025-09-21 18:39:04